Location: Arcones
(41.1182°N, 3.7238°W)
Time: 04:29:16
(UTC+00:00)

IRIDIUM 106 - Pass Details

Date: 16 March 2026
Orbit: 776 x 780 km, 86.4° (Epoch: 17 April)

Event Time Altitude Azimuth Distance (km) Brightness Sun altitude
Exits shadow 20:55:15 21° 21° (NNE) 1,680 6.1 -28.7°
Drops below altitude 10° 20:57:04 10° 13° (NNE) 2,340 6.9 -29.0°
Sets 20:59:28 0° 9° (N) 3,271 7.8 -29.4°
